Location: Brachstadt
(48.6975°N, 10.6755°E)
Time: 08:23:35
(UTC+00:00)

Cosmos 494 Rocket - Pass Details

Date: 18 September 2020
Orbit: 741 x 771 km, 74.1° (Epoch: 27 October)

Event Time Altitude Azimuth Distance (km) Brightness Sun altitude
Rises 19:56:57 0° 334° (NNW) 3,245 8.2 -24.7°
Reaches altitude 10° 19:59:21 10° 330° (NNW) 2,318 7.3 -25.0°
Maximum altitude 20:04:30 58° 253° (WSW) 894 4.4 -25.7°
Enters shadow 20:05:37 48° 206° (SSW) 1,005 4.4 -25.9°
